Regional Weather Roundup
Issued by NWS

Home | Current Version | Previous Version | Graphics & Text | Print | Product List | Glossary On
Versions: 1 2 3 4 5 6 7 8 9 10 11 12 13 14 15 16 17 18 19 20 21 22 23 24 25 26 27 28 29 30 31 32 33 34 35 36 37 38 39 40 41 42 43 44 45 46 47 48 49 50
000
ASUS43 KLMK 281910
RWRKY
KENTUCKY REGIONAL WEATHER ROUNDUP
NATIONAL WEATHER SERVICE LOUISVILLE KY
300 PM EDT THU AUG 28 2014

NOTE "FAIR" INDICATES FEW OR NO CLOUDS BELOW 12,000 FEET
WITH NO SIGNIFICANT WEATHER AND/OR OBSTRUCTIONS TO VISIBILITY.

KYZ001>023-026-027-061>063-070>075-282000-
WESTERN AND SOUTH CENTRAL KENTUCKY

CITY           SKY/WX    TMP DP  RH WIND       PRES   REMARKS
PADUCAH        SUNNY     94  73  50 CALM      29.97F HX 103
HENDERSON      MOSUNNY   90  73  58 NE8       29.99F HX  98
OWENSBORO      MOSUNNY   88  75  65 CALM      30.01F HX  97
HOPKINSVILLE   MOSUNNY   86  72  62 NW8       30.00F HAZE    HX  92
BOWLING GREEN  MOSUNNY   90  72  55 E7        30.00F HX  97
GLASGOW        MOSUNNY   89  71  55 CALM      30.01F HX  95
$$

KYZ024-025-028>034-038-045-046-053-282000-
NORTH CENTRAL KENTUCKY

CITY           SKY/WX    TMP DP  RH WIND       PRES   REMARKS
LOUISVILLE/SDF PTSUNNY   91  70  49 CALM      30.02F HX  96
LOUISVILLE/LOU PTSUNNY   89  70  53 NE5       30.03F HX  94
FORT KNOX      MOSUNNY   87  73  63 N3        30.02F HX  93
$$

KYZ035>037-039>044-047>052-055>060-089>105-282000-
NORTHEAST KENTUCKY

CITY           SKY/WX    TMP DP  RH WIND       PRES   REMARKS
LEXINGTON      MOSUNNY   84  72  67 NE8       30.08S
COVINGTON      MOSUNNY   86  63  45 NE5       30.07F
FRANKFORT      PTSUNNY   85  71  63 E9        30.05F HX  90
$$

KYZ054-064>069-076>088-106>120-282000-
SOUTHEAST KENTUCKY

CITY           SKY/WX    TMP DP  RH WIND       PRES   REMARKS
JACKSON        MOSUNNY   83  69  62 CALM      30.09F
LONDON         MOSUNNY   88  69  53 NE9       30.07F HX  92
SOMERSET       MOSUNNY   88  66  48 NE3       30.05F HX  90
MIDDLESBORO    SUNNY     88  67  50 N3        30.05F HX  91
MONTICELLO     CLEAR     90  73  57 NE6       30.05F HX  98
$$




USA.gov is the U.S. government's official web portal to all federal, state and local government web resources and services.